Weather History for Minot AFB, ND

Change the Weather History Date:

Wednesday, November 13, 2013

  Actual Average Record
Temperature  
Mean Temperature 47 °F -  
Max Temperature 55 °F 34 °F 64 °F (2001)
Min Temperature 39 °F 16 °F -2 °F (2000)
Degree Days  
Heating Degree Days 18    
Moisture  
Dew Point 32 °F    
Average Humidity 62    
Maximum Humidity 79    
Minimum Humidity 41    
Precipitation  
Precipitation 0.00 in - - ()
Sea Level Pressure  
Sea Level Pressure 29.91 in    
Wind  
Wind Speed 14 mph (West)    
Max Wind Speed 20 mph    
Max Gust Speed 26 mph    
Visibility 10 miles    
Events      
Averages and records for this station are not official NWS values.
T = Trace of Precipitation, MM = Missing Value Source: NWS Daily Summary

Daily Weather History Graph

Daily Weather History Graph

Search for Another Location

Airport:

Trip Planner

Search our weather history database for the weather conditions in past years. The results will help you decide how hot, cold, wet, or windy it might be!

Date:

Astronomy

Nov. 13, 2013 Rise Set
Actual Time 7:50 AM CST 5:08 PM CST
Civil Twilight 7:16 AM CST 5:42 PM CST
Nautical Twilight 6:38 AM CST 6:20 PM CST
Astronomical Twilight 6:01 AM CST 6:57 PM CST
Moon 3:12 PM CST (11/13) 3:27 AM CST (11/13)
Length of Visible Light 10h 26m
Length of Day
9h 17m
Waxing Gibbous, 85% of the Moon is Illuminated
Nov 13
Waxing Gibbous
Nov 17
Full
Nov 25
Last Quarter
Dec 2
New
Dec 9
First Quarter

Hourly Weather History & Observations

Time (CST) Temp. Windchill Dew Point Humidity Pressure Visibility Wind Dir Wind Speed Gust Speed Precip Events Conditions
12:58 AM 40.1 °F 32.0 °F 31.3 °F 71% 29.98 in 10.0 mi WSW 15.0 mph - N/A   Clear
1:58 AM 41.7 °F 33.7 °F 32.4 °F 69% 29.95 in 10.0 mi WSW 16.1 mph 23.0 mph N/A   Clear
2:58 AM 40.8 °F 32.6 °F 31.8 °F 70% 29.93 in 10.0 mi WSW 16.1 mph 25.3 mph N/A   Clear
3:58 AM 41.9 °F 33.7 °F 32.2 °F 68% 29.92 in 10.0 mi WSW 17.3 mph - N/A   Clear
4:58 AM 44.2 °F 36.2 °F 32.9 °F 64% 29.91 in 10.0 mi West 19.6 mph 26.5 mph N/A   Clear
5:58 AM 43.3 °F 35.0 °F 32.9 °F 67% 29.90 in 10.0 mi West 19.6 mph 25.3 mph N/A   Clear
6:58 AM 43.2 °F 38.4 °F 33.4 °F 69% 29.90 in 10.0 mi West 8.1 mph 20.7 mph N/A   Clear
7:58 AM 43.3 °F 35.5 °F 33.1 °F 67% 29.90 in 10.0 mi West 17.3 mph 24.2 mph N/A   Clear
8:58 AM 44.8 °F 37.1 °F 33.1 °F 64% 29.92 in 10.0 mi WNW 18.4 mph - N/A   Clear
9:58 AM 45.7 °F 38.3 °F 32.0 °F 59% 29.93 in 10.0 mi WNW 18.4 mph 24.2 mph N/A   Clear
10:58 AM 47.5 °F - 31.3 °F 53% 29.95 in 10.0 mi West 16.1 mph 23.0 mph N/A   Clear
11:58 AM 48.7 °F - 32.0 °F 52% 29.94 in 10.0 mi WNW 18.4 mph 24.2 mph N/A   Clear
12:58 PM 53.1 °F - 32.2 °F 45% 29.91 in 10.0 mi WNW 17.3 mph - N/A   Clear
1:58 PM 55.4 °F - 31.8 °F 41% 29.90 in 10.0 mi WNW 17.3 mph 25.3 mph N/A   Clear
2:58 PM 54.9 °F - 31.3 °F 41% 29.89 in 10.0 mi WNW 15.0 mph - N/A   Clear
3:58 PM 53.8 °F - 32.0 °F 44% 29.89 in 10.0 mi WNW 12.7 mph - N/A   Clear
4:58 PM 46.2 °F 41.7 °F 31.5 °F 56% 29.91 in 10.0 mi WNW 9.2 mph - N/A   Clear
5:58 PM 39.9 °F 36.7 °F 29.1 °F 65% 29.91 in 10.0 mi West 4.6 mph - N/A   Scattered Clouds
6:58 PM 42.6 °F 37.2 °F 30.7 °F 63% 29.90 in 10.0 mi SW 9.2 mph - N/A   Overcast
7:58 PM 43.3 °F 38.6 °F 31.3 °F 62% 29.89 in 10.0 mi WSW 8.1 mph - N/A   Overcast
8:58 PM 41.7 °F 38.0 °F 31.8 °F 68% 29.88 in 10.0 mi WSW 5.8 mph - 0.00 in   Overcast
9:58 PM 41.4 °F 36.2 °F 32.5 °F 71% 29.87 in 10.0 mi SW 8.1 mph - 0.00 in   Overcast
10:58 PM 40.3 °F - 32.9 °F 75% 29.85 in 10.0 mi Calm Calm - N/A   Overcast
11:58 PM 39.4 °F 37.2 °F 33.3 °F 79% 29.84 in 10.0 mi NNW 3.5 mph - 0.00 in   Light Drizzle